sat.trackr.live / text

‹ back to catalog

STARLINK-37427

NORAD 69381 · 2026-123AE

PAYLOAD ACTIVE UNKNOWN

§ Identity

Operator
Country
US
Launch date
2026-06-04
Launch site
AFETR
Launch vehicle
Mass (kg)
RCS (m²)

Purposes: comms

External: N2YO · Heavens-Above · Gunter

§ Orbital elements

Epoch: 2026-09-20T03:12:32.723712Z

Period
93.85 min
Inclination
53.1578°
Eccentricity
0.0001468
Mean motion
15.34410987 rev/d
Perigee alt
461.7 km
Apogee alt
463.7 km
Semi-major
6,840.8 km
B*
5.3935e-4
RAAN
143.4131°
Arg perigee
80.2102°
Mean anomaly
279.9066°
Rev number
1,681

§ Raw data

STARLINK-374271 69381U 26123AE  26263.13371208  .00017896  00000+0  53935-3 0  99932 69381  53.1578 143.4131 0001468  80.2102 279.9066 15.34410987 16814

JSON: /api/v1/satellites/69381 · /tle

For live sub-satellite position, see the globe view (requires WebGL).

§ Visibility from observer

Set your observer location to see the next 7 days of passes ≥ 10°. The values pass through the URL so the page stays shareable.

No JS? Fill the form by hand. The geolocation button needs JavaScript.